Macau International Airport
VMMC : now visible

Airfield :











YOU CAN JOIN US ON...

 
LOGIN :

Register | Disclaimer

   EN    FR    IT 

 









Legend :    VFR   Marginal VFR   IFR   Intensive IFR   Very Intensive IFR
Visi :
Ceiling :
>= 8 km
>= 3000ft
5 to 8 km
1000 to 3000 ft
1500m to 5 km
500 to 1000 ft
800 to 1500m
200 to 500 ft
< 800m
< 200 ft
Symbols :   Thunderstorms  Fog  Heavy snow  Heavy precipitations  Wind > 20 kt






- Airport Elevation : 20 ft
- IATA code : MFM


VMMC - Macau International

CURRENT METAR :
  • 270500Z 11009KT 070V140 9999 FEW015 SCT025 20/18 Q1020 NOSIG

EXPIRED METARs :
  • 270430Z 10011KT 9999 FEW012 SCT025 20/18 Q1020 NOSIG
  • 270400Z 10013KT 9999 FEW013 SCT030 20/18 Q1021 NOSIG
  • 270330Z 10014KT 9999 FEW013 SCT030 21/18 Q1021 NOSIG
  • 270300Z 10015KT 9999 FEW009 SCT028 21/18 Q1021 NOSIG

TAF TAF VMMC
Valid from the 27 at 06:00 until the 28 at 12:00 UTC


270500Z 2706/2812 11014KT 9000 FEW012 SCT025
TEMPO 2720/2803 03010KT



MET'MAP, your aeronautical weather chart ! - Copyright ORBIFLY December 2007 - Disclaimer

ORBIFLY MET'MAP TEAM :

Programming & Development : Alexandra Zaïnal
Concept & original design : Baudouin d'Aumeries
Assistance for programming : Marc-Olivier Méhu
Technical & hardware support : Manuel Goepfert

Contact : metmap@orbifly.com




SOURCES & CREDITS :

   NOAA       Earth
Advisory